This is the latest recevied weather packets stored in our database for station/object IR3AS. If no packets are shown the sender has not sent any weather packets the latest 10 day(s).
| Time | Temp. | Humidity | Pressure | Rain* | Wind** | Luminosity | Snow |
|---|---|---|---|---|---|---|---|
| 1787728504 | 14.44° C | 72% | 868.5 hPa | 0 mm | - | - | - |
| 1787728203 | 14.44° C | 72% | 868.6 hPa | 0 mm | - | - | - |
| 1787727904 | 14.44° C | 72% | 869 hPa | 0 mm | - | - | - |
| 1787727603 | 14.44° C | 72% | 869.7 hPa | 0 mm | - | - | - |
| 1787727304 | 14.44° C | 72% | 869.7 hPa | 0 mm | - | - | - |
| 1787727005 | 15° C | 69% | 869.6 hPa | 0 mm | - | - | - |
| 1787726704 | 15° C | 68% | 869 hPa | 0 mm | - | - | - |
| 1787726403 | 15° C | 68% | 867.9 hPa | 0 mm | - | - | - |
| 1787726104 | 15.56° C | 67% | 868.2 hPa | 0 mm | - | - | - |
| 1787725804 | 15.56° C | 66% | 867.9 hPa | 0 mm | - | - | - |
| 1787725503 | 16.11° C | 65% | 867.7 hPa | 0 mm | - | - | - |
| 1787725204 | 15.56° C | 64% | 867.6 hPa | 0 mm | - | - | - |
| 1787724904 | 15.56° C | 63% | 867.9 hPa | 0 mm | - | - | - |
| 1787724604 | 15° C | 63% | 867.8 hPa | 0 mm | - | - | - |
| 1787724304 | 14.44° C | 66% | 868.1 hPa | 0 mm | - | - | - |
| 1787724004 | 13.89° C | 67% | 867.4 hPa | 0 mm | - | - | - |
| 1787723704 | 13.89° C | 66% | 867.2 hPa | 0 mm | - | - | - |
| 1787723405 | 14.44° C | 66% | 867 hPa | 0 mm | - | - | - |
| 1787723104 | 14.44° C | 67% | 866.6 hPa | 0 mm | - | - | - |
| 1787722804 | 13.89° C | 67% | 866.8 hPa | 0 mm | - | - | - |
| 1787722504 | 13.89° C | 66% | 866.5 hPa | 0 mm | - | - | - |
| 1787722204 | 13.89° C | 70% | 866.7 hPa | 0 mm | - | - | - |
| 1787721904 | 13.33° C | 71% | 867.2 hPa | 0 mm | - | - | - |
| 1787721604 | 13.33° C | 75% | 867.4 hPa | 0 mm | - | - | - |
| 1787721304 | 12.78° C | 77% | 867.6 hPa | 0 mm | - | - | - |
* Rain latest hour (hover to see other rain measurements)
** Current wind speed in m/s (hover to see current wind gust speed)